Location: Observatoire de Paris
(48.8363°N, 2.3365°E)
Time: 15:32:47
(UTC+01:00)

BUGSAT 1 - Pass Details

Date: 02 October 2021
Orbit: 557 x 602 km, 98.1° (Epoch: 18 October)

Event Time Altitude Azimuth Distance (km) Brightness Sun altitude
Rises 05:57:55 0° 12° (NNE) 2,786 ? -9.7°
Reaches altitude 10° 06:00:05 10° 11° (NNE) 1,877 ? -9.3°
Maximum altitude 06:04:08 78° 286° (WNW) 582 ? -8.7°
Drops below altitude 10° 06:08:07 10° 200° (SSW) 1,844 ? -8.0°
Sets 06:10:13 0° 199° (SSW) 2,731 ? -7.7°
